Regional Weather Roundup
Issued by NWS

Home | Current Version | Previous Version | Text Only | Print | Product List | Glossary Off
Versions: 1 2 3 4 5 6 7 8 9 10 11 12 13 14 15 16 17 18 19 20 21 22 23 24 25 26 27 28 29 30 31 32 33 34 35 36 37 38 39 40 41 42 43 44 45 46 47 48 49 50

000
ASUS45 KSLC 080210
RWRUT

UTAH REGIONAL WEATHER ROUNDUP
NATIONAL WEATHER SERVICE SALT LAKE CITY UT
700 PM MST SUN FEB 07 2016

UTZ001>011-023>025-080300-

NORTHERN UTAH

CITY           SKY/WX    TMP DP  RH WIND       PRES   REMARKS
BRIGHAM CITY     N/A     25  21  86 CALM      30.64R
HILL AFB       CLEAR     31  21  68 N5        30.60R WCI  26
LOGAN          CLEAR     22  19  89 CALM      30.62R FOG
OGDEN          CLEAR     28  24  85 CALM      30.61R
PROVO AIRPORT  CLEAR     23  18  80 VRB3      30.62R
SALT LAKE CITY PTCLDY    30  25  81 N6        30.62R HAZE    WCI  24
VERNAL         CLOUDY    18  11  74 W3        30.53R
WENDOVER       CLEAR     34  27  75 S3        30.62R
HEBER CITY     PTCLDY    16  12  86 SE6       30.55R WCI   7
WEST JORDAN    CLEAR     30  27  86 CALM      30.61R

$$

UTZ012>022-026-027-080300-

SOUTHERN/CENTRAL UTAH

CITY           SKY/WX    TMP DP  RH WIND       PRES   REMARKS
BLANDING       PTCLDY    31  20  63 N12       30.50R WCI  22
BRYCE CANYON   PTCLDY    27  11  51 VRB3      30.51R
CEDAR CITY     PTCLDY    28  19  69 NE5       30.52R WCI  23
DELTA          MOCLDY    13  12  95 S6        30.61S WCI   4
HANKSVILLE     PTCLDY    23  18  80 CALM      30.56R
MILFORD        MOCLDY    16  32 100 NE7       30.58R WCI   6
MOAB/CYNLANDS  PTCLDY    19  15  84 W5        30.52R WCI  12
PRICE          CLEAR     25  16  68 E6        30.48R WCI  18
ST GEORGE      PTCLDY    54  19  26 NE9       30.43R
KANAB          CLEAR     45  23  42 NW7       30.47R

$$

REGIONAL REPORTS     COLORADO/ARIZONA

CITY           SKY/WX    TMP DP  RH WIND       PRES   REMARKS
CRAIG, CO      CLOUDY     6   2  83 SW3       30.52R
GRAND JUNCTION CLOUDY    20  16  84 E3        30.52R
RIFLE          CLOUDY    20  12  71 E5        30.52R WCI  13
MONTROSE       CLOUDY    25  17  72 S3        30.52R
CORTEZ         CLOUDY    34  20  56 VRB3      30.40R
PAGE, AZ       CLEAR     40  23  50 CALM      30.46R
GRAND CANYON   CLEAR     32  20  61 CALM      30.46R
KINGMAN        CLEAR     52  23  32 E8        30.33R
FLAGSTAFF      CLEAR     39  15  37 E13       30.42R WCI  31

$$

REGIONAL REPORTS    NEVADA/IDAHO/WYOMING

CITY           SKY/WX    TMP DP  RH WIND       PRES   REMARKS
LAS VEGAS, NV  CLEAR     66  19  16 N16       30.30R
ELY            PTCLDY    21  15  78 S7        30.57R WCI  12
ELKO           PTCLDY    25  16  68 N5        30.62R WCI  19
POCATELLO, ID  FOG       25  24  96 N5        30.64R VSB 1/4 WCI  19
BURLEY         CLEAR     30  27  88 CALM      30.61R
EVANSTON, WY   CLOUDY    26  15  63 SW7       30.56R WCI  18
ROCK SPRINGS   CLOUDY    29  19  66 W24       30.46S WCI  15

$$



USA.gov is the U.S. government's official web portal to all federal, state and local government web resources and services.